Regional Weather Roundup
Issued by NWS

Home | Current Version | Previous Version | Text Only | Print | Product List | Glossary Off
Versions: 1 2 3 4 5 6 7 8 9 10 11 12 13 14 15 16 17 18 19 20 21 22 23 24 25 26 27 28 29 30 31 32 33 34 35 36 37 38 39 40 41 42 43 44 45 46 47 48 49 50

173
ASUS44 KJAN 300310
RWRMS

MISSISSIPPI HOURLY WEATHER ROUNDUP
NATIONAL WEATHER SERVICE JACKSON MS
900 PM CST THU JAN 29 2015

NOTE: "FAIR: INDICATES FEW OR NO CLOUDS BELOW 12,000 FEET WITH NO
SIGNIFICANT WEATHER AND/OR OBSTRUCTIONS TO VISIBILITY.

MSZ001>002-007>008-010>013-018>021-025>028-034>036-300400-
NORTHWEST MISSISSIPPI

CITY           SKY/WX    TMP DP  RH WIND       PRES   REMARKS
CLARKSDALE     CLOUDY    45  34  65 N25G32    30.40R
CLEVELAND      FAIR      45  37  75 N21       30.38R
GREENWOOD      PTCLDY    48  36  63 N20G30    30.34R
GREENVILLE     MOCLDY    47  34  60 N26G33    30.37R
GRENADA        FAIR      46  36  66 N15       30.35R
OLIVE BRANCH   MOCLDY    43  32  65 N16G26    30.38R
OXFORD         CLOUDY    43  32  65 N16G30    30.37R
TUNICA         CLOUDY    45  32  61 N22G30    30.41R
$$

MSZ003>006-009-014>017-022>024-029>033-037>039-300400-
NORTHEAST MISSISSIPPI

CITY           SKY/WX    TMP DP  RH WIND       PRES   REMARKS
COLUMBUS AFB   CLOUDY    51  37  59 N16G25    30.26R
CORINTH        CLOUDY    45  32  61 N10G20    30.33R
GOLDN TRIANGLE CLOUDY    52  39  62 N18G29    30.25R
STARKVILLE     FAIR      52  41  66 NW10G23   30.27R
TUPELO         CLOUDY    47  34  60 N20G28    30.32R
$$

MSZ040-058-300400-
CENTRAL MISSISSIPPI

CITY           SKY/WX    TMP DP  RH WIND       PRES   REMARKS
JACKSON INTL   PTCLDY    59  45  59 N17G26    30.26R
JACKSON HAWKNS CLEAR     59  44  57 N10G18    30.26R
MERIDIAN KEY   MOCLDY    58  48  69 NW3       30.19S
MERIDIAN NAS   MOCLDY    60  49  66 NW9       30.20R
RAYMOND        FAIR      57  54  88 N8G20     30.27R
VICKSBURG      PTCLDY    55  41  59 N25G35    30.31R
$$

MSZ059>079-300400-
SOUTH MISSISSIPPI

CITY           SKY/WX    TMP DP  RH WIND       PRES   REMARKS
BROOKHAVEN     MOCLDY    63  54  72 CALM      30.24R
HATTIESBURG    PTCLDY    61  54  77 CALM      30.21R
MCCOMB         CLEAR     58  49  72 NW5       30.22R
NATCHEZ        PTCLDY    63  48  59 N16G26    30.26R
PINE BELT      PTCLDY    54  48  82 CALM      30.21S
$$

MSZ080>082-300400-
COASTAL MISSISSIPPI

CITY           SKY/WX    TMP DP  RH WIND       PRES   REMARKS
BAY ST LOUIS   CLEAR     57  54  88 CALM      30.21R
BILOXI         CLEAR     58  57  96 SW10      30.20S
PASCAGOULA     CLEAR     60  56  86 VRB5      30.21S
GULFPORT       CLEAR     60  57  89 SW7       30.20S
$$



USA.gov is the U.S. government's official web portal to all federal, state and local government web resources and services.